{"data":{"norad_id":64728,"epoch":"2026-09-20T11:48:20.570400Z","epoch_age_seconds":128620,"freshness":"FRESH","line1":"1 64728U 25144E   26263.49190475  .00001201  00000+0  46717-4 0  9993","line2":"2 64728  53.1589 353.6035 0000940  62.2665 297.8433 15.34360161 69578","mean_motion":15.34360161,"eccentricity":9.4e-5,"inclination_deg":53.1589,"raan_deg":353.6035,"arg_perigee_deg":62.2665,"mean_anomaly_deg":297.8433,"bstar":4.6717e-5,"rev_number":6957,"period_min":93.850194797908,"perigee_km":462.17860255949,"apogee_km":463.46470278619,"semimajor_km":6840.9586526728,"source":"CELESTRAK","updated_at":"2026-09-21T09:00:35.409360Z"}}